AUA129 LFPO-LOWG

Flight info

Callsign AUA129
Flight time N/A
Altitude 37000
Route BUBLI DCT OBORN DCT LUPEN DCT UTABA DCT PELOG DCT LUPOL DCT OLASO DCT AMDID DCT TITIG DCT REDBU DCT LEOBE LEOBE2M
Aircraft A320/M-SDE3FGHIRWY/LB1

Departure

Time N/A
Airport Paris-Orly Airport (LFPO)

Arrival

Time 2026-05-03 20:54
Airport Graz Airport (LOWG)
Time Latitude Longitude Altitude Speed Heading
2026-05-03 20:15 48.21944 9.87822 37046 ft 470 kts 95°
2026-05-03 20:15 48.21562 9.97605 37044 ft 470 kts 95°
2026-05-03 20:16 48.21286 10.07433 37057 ft 470 kts 94°
2026-05-03 20:16 48.21026 10.17191 37052 ft 470 kts 94°
2026-05-03 20:17 48.20717 10.26978 37047 ft 470 kts 95°
2026-05-03 20:17 48.20299 10.36682 37032 ft 469 kts 96°
2026-05-03 20:18 48.19834 10.46427 37032 ft 469 kts 96°
2026-05-03 20:18 48.19396 10.56169 37030 ft 469 kts 96°
2026-05-03 20:19 48.18970 10.65905 37028 ft 468 kts 96°
2026-05-03 20:19 48.18528 10.75644 37011 ft 468 kts 96°
2026-05-03 20:20 48.18068 10.85374 37012 ft 468 kts 96°
2026-05-03 20:20 48.17600 10.95120 37015 ft 469 kts 96°
2026-05-03 20:21 48.17130 11.04853 37023 ft 469 kts 96°
2026-05-03 20:21 48.16650 11.14595 37023 ft 469 kts 96°
2026-05-03 20:22 48.16158 11.24334 37016 ft 469 kts 96°
2026-05-03 20:22 48.15658 11.34066 37017 ft 469 kts 96°
2026-05-03 20:23 48.15155 11.43794 37021 ft 469 kts 96°
2026-05-03 20:23 48.14641 11.53515 37019 ft 468 kts 96°
2026-05-03 20:24 48.14121 11.63238 37001 ft 468 kts 96°
2026-05-03 20:24 48.13592 11.72950 36998 ft 468 kts 96°
2026-05-03 20:25 48.13056 11.82655 37001 ft 468 kts 96°
2026-05-03 20:25 48.12510 11.92354 36998 ft 468 kts 96°
2026-05-03 20:26 48.11954 12.02054 36981 ft 468 kts 96°
2026-05-03 20:26 48.11395 12.11751 36992 ft 467 kts 96°
2026-05-03 20:27 48.10828 12.21425 36978 ft 467 kts 96°
2026-05-03 20:27 48.10247 12.31100 36979 ft 467 kts 96°
2026-05-03 20:28 48.09404 12.40633 36967 ft 465 kts 105°
2026-05-03 20:28 48.07340 12.49776 36967 ft 464 kts 111°
2026-05-03 20:29 48.04825 12.58616 36952 ft 461 kts 122°
2026-05-03 20:29 48.01536 12.66845 36961 ft 461 kts 122°
2026-05-03 20:30 47.98254 12.75085 36964 ft 462 kts 122°
2026-05-03 20:30 47.95166 12.83479 36944 ft 463 kts 113°
2026-05-03 20:31 47.92881 12.92469 36949 ft 464 kts 112°
2026-05-03 20:31 47.90572 13.01446 36950 ft 464 kts 112°
2026-05-03 20:32 47.88237 13.10417 36953 ft 464 kts 112°
2026-05-03 20:32 47.85903 13.19381 36956 ft 465 kts 112°
2026-05-03 20:33 47.83572 13.28347 36964 ft 465 kts 112°
2026-05-03 20:33 47.81239 13.37319 36966 ft 465 kts 112°
2026-05-03 20:34 47.78888 13.46273 36976 ft 465 kts 112°
2026-05-03 20:34 47.76529 13.55214 36975 ft 465 kts 112°
2026-05-03 20:35 47.74164 13.64146 36995 ft 465 kts 112°
2026-05-03 20:35 47.71798 13.73069 36676 ft 463 kts 112°
2026-05-03 20:35 47.70615 13.77515 36423 ft 463 kts 112°
2026-05-03 20:36 47.69429 13.81960 36161 ft 463 kts 112°
2026-05-03 20:36 47.68242 13.86401 35904 ft 463 kts 112°
2026-05-03 20:36 47.67053 13.90843 35658 ft 463 kts 112°
2026-05-03 20:36 47.65863 13.95285 35408 ft 464 kts 112°
2026-05-03 20:37 47.64670 13.99730 35156 ft 465 kts 111°
2026-05-03 20:37 47.63470 14.04190 34905 ft 466 kts 111°
2026-05-03 20:37 47.62264 14.08663 34673 ft 467 kts 111°
2026-05-03 20:37 47.61057 14.13133 34436 ft 468 kts 111°
2026-05-03 20:38 47.59844 14.17617 34128 ft 467 kts 111°
2026-05-03 20:38 47.58635 14.22078 33272 ft 467 kts 111°
2026-05-03 20:38 47.57420 14.26548 32289 ft 469 kts 111°
2026-05-03 20:38 47.56198 14.31040 31254 ft 472 kts 112°
2026-05-03 20:39 47.54981 14.35497 30283 ft 475 kts 111°
2026-05-03 20:39 47.53742 14.40026 29154 ft 475 kts 111°
2026-05-03 20:39 47.52498 14.44569 27937 ft 477 kts 112°
2026-05-03 20:39 47.51249 14.49128 26705 ft 479 kts 112°
2026-05-03 20:40 47.49994 14.53696 25511 ft 480 kts 113°
2026-05-03 20:40 47.48734 14.58267 24361 ft 480 kts 114°
2026-05-03 20:40 47.47482 14.62796 23558 ft 472 kts 114°
2026-05-03 20:40 47.46252 14.67243 22681 ft 464 kts 114°
2026-05-03 20:41 47.45035 14.71632 21813 ft 458 kts 114°
2026-05-03 20:41 47.43835 14.75961 20989 ft 452 kts 114°
2026-05-03 20:41 47.42650 14.80232 20226 ft 447 kts 113°
2026-05-03 20:41 47.41477 14.84451 19480 ft 441 kts 114°
2026-05-03 20:42 47.40313 14.88617 18766 ft 437 kts 114°
2026-05-03 20:42 47.39159 14.92737 18027 ft 432 kts 114°
2026-05-03 20:42 47.38005 14.96800 17254 ft 427 kts 116°
2026-05-03 20:42 47.36559 15.00579 16541 ft 421 kts 126°
2026-05-03 20:43 47.34720 15.03884 16014 ft 414 kts 135°
2026-05-03 20:43 47.32563 15.06666 15265 ft 410 kts 145°
2026-05-03 20:43 47.30241 15.09081 14572 ft 407 kts 146°
2026-05-03 20:43 47.27936 15.11474 13885 ft 404 kts 146°
2026-05-03 20:44 47.25648 15.13852 13174 ft 400 kts 146°
2026-05-03 20:44 47.23391 15.16199 12517 ft 394 kts 146°
2026-05-03 20:44 47.21166 15.18512 11854 ft 389 kts 146°
2026-05-03 20:44 47.18973 15.20789 11338 ft 381 kts 146°
2026-05-03 20:45 47.16862 15.22973 11209 ft 361 kts 146°
2026-05-03 20:45 47.15525 15.24355 11126 ft 350 kts 146°
2026-05-03 20:45 47.12905 15.26909 10959 ft 327 kts 153°
2026-05-03 20:45 47.11558 15.27807 10879 ft 316 kts 161°
2026-05-03 20:46 47.09484 15.28640 10772 ft 302 kts 171°
2026-05-03 20:46 47.07453 15.29190 10609 ft 292 kts 171°
2026-05-03 20:46 47.05471 15.29734 10441 ft 287 kts 171°
2026-05-03 20:46 47.03515 15.30278 10350 ft 286 kts 171°
2026-05-03 20:47 47.01557 15.30821 10226 ft 286 kts 171°
2026-05-03 20:47 46.99606 15.31361 10101 ft 285 kts 171°
2026-05-03 20:47 46.97654 15.31901 9869 ft 286 kts 171°
2026-05-03 20:47 46.95696 15.32443 9432 ft 286 kts 170°
2026-05-03 20:48 46.93750 15.32980 9046 ft 284 kts 170°
2026-05-03 20:48 46.91814 15.33514 8669 ft 282 kts 170°
2026-05-03 20:48 46.89887 15.34064 8129 ft 285 kts 169°
2026-05-03 20:48 46.87944 15.34697 7702 ft 283 kts 168°
2026-05-03 20:49 46.86066 15.35342 7021 ft 280 kts 167°
2026-05-03 20:49 46.84182 15.35997 6396 ft 275 kts 168°
2026-05-03 20:49 46.82360 15.36635 6132 ft 255 kts 167°
2026-05-03 20:49 46.80846 15.37662 5994 ft 236 kts 141°
2026-05-03 20:50 46.79870 15.39493 5885 ft 230 kts 114°
2026-05-03 20:50 46.79566 15.41784 5512 ft 237 kts 86°
2026-05-03 20:50 46.80073 15.44084 5091 ft 243 kts 59°
2026-05-03 20:50 46.81031 15.46139 4655 ft 248 kts 45°
2026-05-03 20:51 46.82459 15.47534 4231 ft 250 kts 19°
2026-05-03 20:51 46.84171 15.47972 3836 ft 250 kts 355°
2026-05-03 20:51 46.85848 15.47585 3588 ft 243 kts 347°
2026-05-03 20:51 46.87516 15.47138 3176 ft 240 kts 348°
2026-05-03 20:52 46.89095 15.46712 2859 ft 221 kts 348°
2026-05-03 20:52 46.90549 15.46314 2603 ft 203 kts 348°
2026-05-03 20:52 46.91874 15.45951 2346 ft 183 kts 349°
2026-05-03 20:52 46.93069 15.45623 2094 ft 168 kts 349°
2026-05-03 20:53 46.94175 15.45319 1872 ft 156 kts 349°
2026-05-03 20:53 46.95211 15.45034 1660 ft 147 kts 350°
2026-05-03 20:53 46.96204 15.44762 1464 ft 143 kts 351°
2026-05-03 20:53 46.97164 15.44497 1272 ft 139 kts 351°
2026-05-03 20:54 46.98112 15.44237 1098 ft 137 kts 351°
2026-05-03 20:54 46.99570 15.43834 1111 ft 59 kts 349°
2026-05-03 20:54 46.99864 15.43927 1110 ft 30 kts 29°
2026-05-03 20:55 46.99964 15.44099 1109 ft 15 kts 41°
2026-05-03 20:55 47.00145 15.44075 1115 ft 39 kts 345°
2026-05-03 20:55 47.00355 15.43930 1120 ft 16 kts 303°
2026-05-03 20:55 47.00370 15.43882 1120 ft 9 kts 283°
2026-05-03 20:56 47.00378 15.43910 1121 ft 21 kts 132°
2026-05-03 20:56 47.00266 15.44039 1119 ft 27 kts 155°
2026-05-03 20:56 47.00089 15.44105 1115 ft 20 kts 167°
2026-05-03 20:56 46.99942 15.44138 1115 ft 21 kts 167°
2026-05-03 20:57 46.99833 15.44190 1111 ft 15 kts 134°
2026-05-03 20:57 46.99799 15.44291 1111 ft 7 kts 116°
2026-05-03 20:57 46.99764 15.44330 1113 ft 6 kts 167°
2026-05-03 20:57 46.99748 15.44335 1110 ft 0 kts 169°